Preview of NWS' New Version of Forecast
This preview is not operational and should not be used for support decisions.

Regional Weather Roundup (RWR)

Issued by National Weather Service (NWS)

                            
000
ASPQ40 PGUM 270010
RWRPQ 
WEATHER ROUNDUP FOR THE MARIANAS AND MICRONESIA
NATIONAL WEATHER SERVICE TIYAN GU
1000 AM CHST THU JUN 27 2019

GUZ001>004-270100-
MARIANA ISLANDS-
  
CITY           SKY/WX    TMP DP  RH WIND       PRES   REMARKS
GUAM AIRPORT   PTSUNNY   88  75  66 E12G22    29.87S HX  97           
ANDERSEN AFB   PTSUNNY   86  75  70 E13       29.88S HX  95           
ROTA AIRPORT   MOSUNNY   86  73  66 E16       29.86F HX  93           
TINIAN AP      MOSUNNY   88  79  74 E9        29.86S HX 102           
SAIPAN AP      PTSUNNY   88  75  66 E12       29.87S HX  97           

$$

PMZ161-270100-
REPUBLIC OF PALAU-
  
CITY           SKY/WX    TMP DP  RH WIND       PRES   REMARKS
KOROR AP       SHOWER    75  73  94 W13G20    29.80R                  
KOROR WSO      NOT AVBL                                               

$$

PMZ171>174-270100-
FEDERATED STATES OF MICRONESIA-
  
CITY           SKY/WX    TMP DP  RH WIND       PRES   REMARKS
YAP AIRPORT    NOT AVBL                                               
CHUUK AP       CLOUDY    86  79  79 NE9       29.80F HX  99           
POHNPEI AP     PTSUNNY   88  77  70 NE9       29.82F HX 100           
POHNPEI WSO    MOSUNNY   88  77  70 E5        29.85S HX 100           
KOSRAE AP      PTSUNNY   88  75  66 NE10      29.79F HX  97           

$$

PMZ181-270100-
REPUBLIC OF THE MARSHALL ISLANDS-
  
CITY           SKY/WX    TMP DP  RH WIND       PRES   REMARKS
KWAJALEIN AP   SUNNY     86  77  74 NE13      29.79F HX  97           
MAJURO AP      PTSUNNY   86  77  74 NE18      29.80R HX  97           
MAJURO WSO     PTSUNNY   86  79  79 E9        29.78R HX  99           

$$